Volver al catálogo

STARLINK-3969

ActivoComunicacionesVLEO
NORAD 52551·PAYLOAD·🇺🇸 United States

Lanzado May 13, 2022 desde Vandenberg Space Force Base

Loading…

Próximos Pases (próximas 24 horas)

TLE

ActualizadoSource: CelesTrak SupGP

Época: Sep 15, 2026, 01:46 UTC

1 52551C 22051U   26258.07409722  .00039238  00000+0  11909-2 0  2586
2 52551  53.1596 347.1864 0000745  76.2805 349.5557 15.33522776    16

Sigue STARLINK-3969 en tiempo real con AllMySat

Download on the App Store